Pontiac, IL

1:45 PM CDT on September 29, 2016 (GMT -0500)
Pontiac Municipal

Weather History for KPNT - June, 2013

Change the Weather History Date:

Monday, June 17, 2013

  Actual Average Record
Temperature  
Mean Temperature 76 °F -  
Max Temperature 89 °F 81 °F 99 °F (1913)
Min Temperature 64 °F 59 °F 46 °F (1950)
Cooling Degree Days 12    
Growing Degree Days 26 (Base 50)    
Moisture  
Dew Point 59 °F    
Average Humidity 58    
Maximum Humidity 100    
Minimum Humidity 24    
Precipitation  
Precipitation 0.00 in - - ()
Sea Level Pressure  
Sea Level Pressure 29.92 in    
Wind  
Wind Speed 2 mph (West)    
Max Wind Speed 9 mph    
Max Gust Speed 10 mph    
Visibility 9 miles    
Events      
Averages and records for this station are not official NWS values.
T = Trace of Precipitation, MM = Missing Value Source: NWS Daily Summary

Daily Weather History Graph

Daily Weather History Graph

Search for Another Location

Airport or City:

Trip Planner

Search our weather history database for the weather conditions in past years. The results will help you decide how hot, cold, wet, or windy it might be!

Date:

Astronomy

Jun. 17, 2013 Rise Set
Actual Time 5:22 AM CDT 8:28 PM CDT
Civil Twilight 4:48 AM CDT 9:02 PM CDT
Nautical Twilight 4:05 AM CDT 9:45 PM CDT
Astronomical Twilight 3:14 AM CDT 10:36 PM CDT
Moon 2:05 PM CDT (6/17) 1:00 AM CDT (6/17)
Length of Visible Light 16h 13m
Length of Day
15h 06m
First Quarter, 60% of the Moon is Illuminated
Jun 17
First Quarter
Jun 23
Full
Jun 29
Last Quarter
Jul 8
New
Jul 15
First Quarter

Hourly Weather History & Observations

Time (CDT) Temp. Heat Index Dew Point Humidity Pressure Visibility Wind Dir Wind Speed Gust Speed Precip Events Conditions
12:15 AM 71.6 °F - 68.0 °F 88% 29.95 in 10.0 mi Calm Calm - N/A   Clear
12:35 AM 71.6 °F - 68.0 °F 88% 29.95 in 10.0 mi Calm Calm - N/A   Clear
12:55 AM 71.6 °F - 66.2 °F 83% 29.95 in 10.0 mi SW 3.5 mph - N/A   Clear
1:15 AM 71.6 °F - 68.0 °F 88% 29.95 in 10.0 mi SW 5.8 mph - N/A   Clear
1:35 AM 71.6 °F - 68.0 °F 88% 29.94 in 10.0 mi WSW 5.8 mph - N/A   Scattered Clouds
1:55 AM 71.6 °F - 68.0 °F 88% 29.93 in 10.0 mi WSW 4.6 mph - N/A   Scattered Clouds
2:15 AM 69.8 °F - 66.2 °F 88% 29.93 in 10.0 mi Calm Calm - N/A   Clear
2:35 AM 69.8 °F - 68.0 °F 94% 29.93 in 10.0 mi Calm Calm - N/A   Clear
2:55 AM 69.8 °F - 66.2 °F 88% 29.94 in 10.0 mi Calm Calm - N/A   Clear
3:15 AM 69.8 °F - 66.2 °F 88% 29.94 in 10.0 mi West 3.5 mph - N/A   Clear
3:35 AM 69.8 °F - 66.2 °F 88% 29.94 in 10.0 mi WSW 3.5 mph - N/A   Clear
3:55 AM 66.2 °F - 64.4 °F 94% 29.94 in 7.0 mi Calm Calm - N/A   Clear
4:15 AM 68.0 °F - 66.2 °F 94% 29.94 in 7.0 mi Calm Calm - N/A   Clear
4:35 AM 66.2 °F - 66.2 °F 100% 29.94 in 7.0 mi SSW 4.6 mph - N/A   Clear
4:55 AM 66.2 °F - 64.4 °F 94% 29.92 in 5.0 mi Calm Calm - N/A   Clear
5:15 AM 64.4 °F - 64.4 °F 100% 29.93 in 3.0 mi Calm Calm - N/A   Clear
5:35 AM 64.4 °F - 62.6 °F 94% 29.93 in 2.5 mi Calm Calm - N/A   Clear
5:55 AM 64.4 °F - 62.6 °F 94% 29.94 in 2.5 mi Calm Calm - N/A   Clear
6:15 AM 64.4 °F - 64.4 °F 100% 29.94 in 3.0 mi Calm Calm - N/A   Clear
6:35 AM 66.2 °F - 66.2 °F 100% 29.95 in 4.0 mi Calm Calm - N/A   Clear
6:55 AM 69.8 °F - 66.2 °F 88% 29.95 in 4.0 mi Calm Calm - N/A   Clear
7:15 AM 69.8 °F - 68.0 °F 94% 29.96 in 5.0 mi WSW 3.5 mph - N/A   Clear
7:35 AM 71.6 °F - 68.0 °F 88% 29.95 in 7.0 mi West 4.6 mph - N/A   Clear
7:55 AM 73.4 °F - 68.0 °F 83% 29.96 in 10.0 mi Calm Calm - N/A   Clear
8:15 AM 73.4 °F - 66.2 °F 78% 29.96 in 10.0 mi Calm Calm - N/A   Clear
8:35 AM 75.2 °F - 66.2 °F 73% 29.97 in 10.0 mi Calm Calm - N/A   Clear
8:55 AM 78.8 °F - 64.4 °F 61% 29.96 in 10.0 mi Calm Calm - N/A   Clear
9:15 AM 78.8 °F - 64.4 °F 61% 29.96 in 10.0 mi NW 3.5 mph - N/A   Clear
9:35 AM 80.6 °F 81.8 °F 62.6 °F 54% 29.96 in 10.0 mi WSW 3.5 mph - N/A   Clear
9:55 AM 82.4 °F 82.5 °F 59.0 °F 45% 29.95 in 10.0 mi SW 3.5 mph - N/A   Clear
10:15 AM 82.4 °F 82.0 °F 57.2 °F 42% 29.95 in 10.0 mi West 3.5 mph - N/A   Clear
10:35 AM 84.2 °F 82.8 °F 53.6 °F 35% 29.95 in 10.0 mi Calm Calm - N/A   Clear
10:55 AM 84.2 °F 82.8 °F 53.6 °F 35% 29.95 in 10.0 mi Calm Calm - N/A   Clear
11:15 AM 86.0 °F 84.2 °F 53.6 °F 33% 29.95 in 10.0 mi SSW 3.5 mph - N/A   Clear
11:35 AM 87.8 °F - 50.0 °F 27% 29.94 in 10.0 mi West 4.6 mph - N/A   Clear
11:55 AM 87.8 °F - 51.8 °F 29% 29.94 in 10.0 mi SW 5.8 mph - N/A   Clear
12:35 PM 87.8 °F - 50.0 °F 27% 29.94 in 10.0 mi West 5.8 mph - N/A   Clear
12:55 PM 87.8 °F - 46.4 °F 24% 29.94 in 10.0 mi West 5.8 mph - N/A   Clear
1:55 PM 87.8 °F - 50.0 °F 27% 29.94 in 10.0 mi West 4.6 mph - N/A   Clear
2:15 PM 87.8 °F - 48.2 °F 25% 29.93 in 10.0 mi Calm Calm - N/A   Clear
2:35 PM 89.6 °F - 48.2 °F 24% 29.92 in 10.0 mi Calm Calm - N/A   Clear
2:55 PM 89.6 °F - 50.0 °F 26% 29.91 in 10.0 mi West 3.5 mph - N/A   Clear
3:15 PM 89.6 °F - 48.2 °F 24% 29.90 in 10.0 mi West 4.6 mph - N/A   Clear
3:35 PM 89.6 °F - 50.0 °F 26% 29.89 in 10.0 mi NW 3.5 mph - N/A   Scattered Clouds
3:55 PM 89.6 °F - 48.2 °F 24% 29.88 in 10.0 mi West 4.6 mph - N/A   Clear
4:15 PM 89.6 °F - 48.2 °F 24% 29.88 in 10.0 mi West 4.6 mph - N/A   Clear
4:35 PM 89.6 °F - 48.2 °F 24% 29.88 in 10.0 mi West 9.2 mph - N/A   Clear
4:55 PM 89.6 °F - 48.2 °F 24% 29.88 in 10.0 mi WNW 5.8 mph - N/A   Clear
5:15 PM 89.6 °F - 48.2 °F 24% 29.89 in 10.0 mi West 4.6 mph - N/A   Clear
5:35 PM 89.6 °F - 50.0 °F 26% 29.88 in 10.0 mi West 3.5 mph - N/A   Mostly Cloudy
5:55 PM 87.8 °F - 51.8 °F 29% 29.89 in 10.0 mi West 8.1 mph - N/A   Scattered Clouds
6:15 PM 87.8 °F - 51.8 °F 29% 29.89 in 10.0 mi West 6.9 mph - N/A   Clear
6:35 PM 87.8 °F - 51.8 °F 29% 29.89 in 10.0 mi West 5.8 mph - N/A   Clear
6:55 PM 87.8 °F 85.7 °F 53.6 °F 31% 29.89 in 10.0 mi West 8.1 mph - N/A   Clear
7:15 PM 86.0 °F 84.2 °F 53.6 °F 33% 29.89 in 10.0 mi West 6.9 mph - N/A   Clear
7:35 PM 84.2 °F 83.0 °F 55.4 °F 37% 29.89 in 10.0 mi West 6.9 mph - N/A   Clear
7:55 PM 82.4 °F 82.0 °F 57.2 °F 42% 29.89 in 10.0 mi West 4.6 mph - N/A   Clear
8:15 PM 82.4 °F 82.0 °F 57.2 °F 42% 29.89 in 10.0 mi WSW 4.6 mph - N/A   Clear
8:35 PM 80.6 °F 80.8 °F 57.2 °F 45% 29.88 in 10.0 mi SW 5.8 mph - N/A   Clear
8:55 PM 80.6 °F 80.8 °F 57.2 °F 45% 29.88 in 10.0 mi West 6.9 mph - N/A   Clear
9:15 PM 78.8 °F - 57.2 °F 47% 29.89 in 10.0 mi WSW 4.6 mph - N/A   Clear
9:35 PM 78.8 °F - 59.0 °F 51% 29.89 in 10.0 mi West 3.5 mph - N/A   Clear
9:55 PM 78.8 °F - 60.8 °F 54% 29.90 in 10.0 mi Calm Calm - N/A   Clear
10:15 PM 78.8 °F - 60.8 °F 54% 29.90 in 10.0 mi Calm Calm - N/A   Clear
10:35 PM 78.8 °F - 62.6 °F 57% 29.90 in 10.0 mi WSW 3.5 mph - N/A   Clear
10:55 PM 75.2 °F - 62.6 °F 65% 29.90 in 10.0 mi Calm Calm - N/A   Clear
11:15 PM 75.2 °F - 62.6 °F 65% 29.90 in 10.0 mi Calm Calm - N/A   Clear
11:35 PM 75.2 °F - 62.6 °F 65% 29.91 in 10.0 mi North 4.6 mph 10.4 mph N/A   Clear
11:55 PM 75.2 °F - 60.8 °F 61% 29.90 in 10.0 mi Calm Calm - N/A   Clear